SWA8241 KLAS-KLAX

Flight info

Callsign SWA8241
Flight time 0h 49m
Altitude 22000
Route RADYR2 BLAQQ SHTNR ANJLL4
Aircraft B738/M-SDE2E3FGHIRWXY/LB1

Departure

Time 2026-05-05 03:10
Airport Harry Reid International Airport (KLAS)

Arrival

Time 2026-05-05 03:59
Airport Los Angeles International Airport (KLAX)
Time Latitude Longitude Altitude Speed Heading
2026-05-05 02:54 36.08166 -115.14815 2115 ft 0 kts 69°
2026-05-05 03:02 36.08162 -115.14826 2118 ft 3 kts 69°
2026-05-05 03:03 36.08156 -115.14846 2116 ft 3 kts 83°
2026-05-05 03:03 36.08160 -115.14868 2118 ft 3 kts 149°
2026-05-05 03:03 36.08164 -115.14870 2118 ft 0 kts 150°
2026-05-05 03:06 36.08163 -115.14870 2118 ft 2 kts 154°
2026-05-05 03:06 36.08113 -115.14851 2116 ft 14 kts 161°
2026-05-05 03:07 36.07982 -115.14780 2118 ft 27 kts 155°
2026-05-05 03:07 36.07842 -115.14648 2119 ft 26 kts 94°
2026-05-05 03:07 36.07832 -115.14404 2119 ft 24 kts 94°
2026-05-05 03:07 36.07827 -115.14146 2116 ft 35 kts 91°
2026-05-05 03:08 36.07827 -115.13855 2123 ft 36 kts 90°
2026-05-05 03:08 36.07827 -115.13532 2125 ft 36 kts 90°
2026-05-05 03:08 36.07828 -115.13212 2121 ft 31 kts 90°
2026-05-05 03:08 36.07827 -115.12902 2119 ft 41 kts 90°
2026-05-05 03:09 36.07828 -115.12519 2115 ft 28 kts 90°
2026-05-05 03:09 36.07827 -115.12315 2117 ft 26 kts 95°
2026-05-05 03:09 36.07782 -115.12204 2120 ft 23 kts 127°
2026-05-05 03:09 36.07712 -115.12126 2122 ft 20 kts 162°
2026-05-05 03:10 36.07640 -115.12298 2122 ft 38 kts 270°
2026-05-05 03:10 36.07641 -115.12957 2121 ft 116 kts 270°
2026-05-05 03:10 36.07652 -115.14231 2189 ft 179 kts 268°
2026-05-05 03:10 36.07770 -115.15843 3011 ft 187 kts 278°
2026-05-05 03:11 36.08099 -115.17401 4020 ft 188 kts 285°
2026-05-05 03:11 36.08678 -115.18831 5014 ft 186 kts 296°
2026-05-05 03:11 36.09381 -115.20213 5567 ft 201 kts 284°
2026-05-05 03:11 36.09339 -115.21949 5779 ft 215 kts 248°
2026-05-05 03:12 36.08834 -115.23768 6268 ft 230 kts 252°
2026-05-05 03:12 36.08177 -115.25583 6976 ft 235 kts 226°
2026-05-05 03:12 36.06772 -115.26581 7539 ft 243 kts 191°
2026-05-05 03:12 36.05034 -115.26870 7836 ft 263 kts 196°
2026-05-05 03:13 36.03294 -115.27601 7864 ft 265 kts 200°
2026-05-05 03:13 36.02121 -115.28120 7860 ft 265 kts 200°
2026-05-05 03:13 36.00401 -115.28885 7879 ft 261 kts 201°
2026-05-05 03:13 35.98686 -115.29602 7929 ft 259 kts 196°
2026-05-05 03:14 35.96916 -115.30080 8420 ft 263 kts 192°
2026-05-05 03:14 35.95107 -115.30502 9404 ft 263 kts 190°
2026-05-05 03:14 35.93292 -115.30919 10229 ft 270 kts 191°
2026-05-05 03:14 35.91362 -115.31370 10515 ft 296 kts 190°
2026-05-05 03:15 35.89249 -115.31869 10722 ft 322 kts 191°
2026-05-05 03:15 35.86978 -115.32416 11046 ft 341 kts 191°
2026-05-05 03:15 35.84614 -115.32991 11657 ft 350 kts 192°
2026-05-05 03:15 35.82223 -115.33573 12491 ft 352 kts 192°
2026-05-05 03:16 35.79809 -115.34163 13266 ft 356 kts 192°
2026-05-05 03:16 35.77361 -115.34763 13964 ft 361 kts 193°
2026-05-05 03:16 35.74885 -115.35369 14693 ft 363 kts 193°
2026-05-05 03:16 35.72440 -115.35968 15480 ft 363 kts 193°
2026-05-05 03:17 35.69955 -115.36576 16228 ft 365 kts 193°
2026-05-05 03:17 35.67454 -115.37187 16941 ft 368 kts 193°
2026-05-05 03:17 35.64935 -115.37803 17644 ft 370 kts 193°
2026-05-05 03:17 35.62400 -115.38422 18317 ft 373 kts 194°
2026-05-05 03:18 35.59815 -115.38841 18863 ft 380 kts 184°
2026-05-05 03:18 35.57155 -115.38663 19458 ft 385 kts 179°
2026-05-05 03:18 35.54476 -115.38395 20016 ft 388 kts 180°
2026-05-05 03:18 35.51773 -115.38153 20559 ft 391 kts 180°
2026-05-05 03:19 35.46298 -115.37760 21613 ft 396 kts 183°
2026-05-05 03:19 35.43578 -115.38119 21878 ft 392 kts 198°
2026-05-05 03:19 35.41085 -115.39385 21933 ft 387 kts 209°
2026-05-05 03:20 35.38698 -115.40933 21900 ft 388 kts 210°
2026-05-05 03:20 35.36321 -115.42501 21909 ft 388 kts 210°
2026-05-05 03:20 35.33947 -115.44062 21919 ft 387 kts 210°
2026-05-05 03:20 35.31568 -115.45610 21923 ft 387 kts 210°
2026-05-05 03:21 35.29188 -115.47145 21916 ft 387 kts 210°
2026-05-05 03:21 35.26802 -115.48676 21916 ft 387 kts 210°
2026-05-05 03:21 35.24416 -115.50201 21913 ft 387 kts 210°
2026-05-05 03:21 35.22026 -115.51727 21924 ft 388 kts 210°
2026-05-05 03:22 35.19636 -115.53252 21927 ft 388 kts 210°
2026-05-05 03:22 35.17242 -115.54778 21920 ft 388 kts 210°
2026-05-05 03:22 35.14844 -115.56306 21912 ft 389 kts 209°
2026-05-05 03:22 35.12523 -115.57898 21888 ft 387 kts 217°
2026-05-05 03:23 35.10529 -115.60146 21922 ft 384 kts 227°
2026-05-05 03:23 35.08730 -115.62501 21910 ft 384 kts 227°
2026-05-05 03:23 35.06877 -115.64915 21933 ft 384 kts 227°
2026-05-05 03:23 35.05069 -115.67255 21921 ft 384 kts 227°
2026-05-05 03:24 35.03226 -115.69626 21915 ft 385 kts 226°
2026-05-05 03:24 35.01381 -115.71987 21916 ft 385 kts 226°
2026-05-05 03:24 34.99532 -115.74348 21912 ft 385 kts 226°
2026-05-05 03:24 34.97683 -115.76704 21910 ft 385 kts 226°
2026-05-05 03:25 34.95830 -115.79061 21909 ft 385 kts 226°
2026-05-05 03:25 34.93979 -115.81414 21912 ft 385 kts 226°
2026-05-05 03:25 34.92127 -115.83767 21901 ft 385 kts 226°
2026-05-05 03:25 34.90275 -115.86118 21900 ft 385 kts 226°
2026-05-05 03:26 34.88420 -115.88473 21903 ft 385 kts 226°
2026-05-05 03:26 34.86566 -115.90823 21887 ft 385 kts 226°
2026-05-05 03:26 34.84713 -115.93172 21894 ft 385 kts 226°
2026-05-05 03:26 34.82859 -115.95521 21911 ft 385 kts 226°
2026-05-05 03:27 34.81003 -115.97870 21899 ft 385 kts 226°
2026-05-05 03:27 34.79146 -116.00218 21883 ft 384 kts 226°
2026-05-05 03:27 34.77294 -116.02558 21871 ft 384 kts 226°
2026-05-05 03:27 34.75449 -116.04901 21876 ft 383 kts 227°
2026-05-05 03:28 34.73611 -116.07242 21882 ft 383 kts 227°
2026-05-05 03:28 34.71776 -116.09583 21887 ft 382 kts 227°
2026-05-05 03:28 34.69944 -116.11918 21886 ft 382 kts 227°
2026-05-05 03:28 34.68113 -116.14249 21883 ft 381 kts 227°
2026-05-05 03:29 34.66280 -116.16581 21894 ft 381 kts 227°
2026-05-05 03:29 34.64447 -116.18909 21884 ft 382 kts 227°
2026-05-05 03:29 34.62613 -116.21238 21892 ft 382 kts 227°
2026-05-05 03:29 34.60775 -116.23571 21897 ft 382 kts 227°
2026-05-05 03:30 34.58935 -116.25904 21894 ft 383 kts 226°
2026-05-05 03:30 34.57095 -116.28235 21887 ft 383 kts 226°
2026-05-05 03:30 34.55251 -116.30571 21886 ft 383 kts 226°
2026-05-05 03:30 34.53408 -116.32903 21905 ft 383 kts 226°
2026-05-05 03:31 34.51563 -116.35236 21878 ft 384 kts 226°
2026-05-05 03:31 34.49714 -116.37573 21897 ft 384 kts 226°
2026-05-05 03:31 34.47867 -116.39907 21881 ft 384 kts 226°
2026-05-05 03:31 34.46018 -116.42241 21878 ft 383 kts 226°
2026-05-05 03:32 34.44175 -116.44566 21892 ft 383 kts 226°
2026-05-05 03:32 34.43948 -116.44852 21889 ft 383 kts 226°
2026-05-05 03:37 34.42366 -116.46858 21882 ft 382 kts 228°
2026-05-05 03:37 34.40841 -116.49479 21880 ft 383 kts 242°
2026-05-05 03:38 34.39705 -116.52387 21899 ft 382 kts 243°
2026-05-05 03:38 34.38552 -116.55281 21900 ft 382 kts 242°
2026-05-05 03:38 34.37377 -116.58169 21898 ft 382 kts 242°
2026-05-05 03:38 34.36192 -116.61054 21894 ft 383 kts 242°
2026-05-05 03:39 34.34999 -116.63943 21916 ft 384 kts 242°
2026-05-05 03:39 34.33803 -116.66836 21914 ft 385 kts 242°
2026-05-05 03:39 34.32611 -116.69746 21918 ft 386 kts 242°
2026-05-05 03:39 34.31435 -116.72666 21900 ft 386 kts 243°
2026-05-05 03:40 34.30269 -116.75586 21944 ft 385 kts 243°
2026-05-05 03:40 34.29102 -116.78508 21933 ft 386 kts 242°
2026-05-05 03:40 34.27927 -116.81426 21951 ft 387 kts 242°
2026-05-05 03:40 34.26746 -116.84355 21944 ft 388 kts 242°
2026-05-05 03:41 34.25561 -116.87288 21962 ft 388 kts 242°
2026-05-05 03:41 34.24395 -116.90179 21904 ft 376 kts 242°
2026-05-05 03:41 34.23267 -116.92973 21612 ft 366 kts 242°
2026-05-05 03:41 34.22154 -116.95723 21074 ft 363 kts 242°
2026-05-05 03:42 34.21071 -116.98420 20372 ft 364 kts 243°
2026-05-05 03:42 34.20156 -117.01314 19561 ft 372 kts 249°
2026-05-05 03:42 34.19385 -117.04328 18727 ft 379 kts 251°
2026-05-05 03:42 34.18621 -117.07389 17990 ft 381 kts 250°
2026-05-05 03:43 34.17841 -117.10393 17648 ft 371 kts 250°
2026-05-05 03:43 34.17053 -117.13334 17241 ft 365 kts 249°
2026-05-05 03:43 34.16269 -117.16216 16815 ft 358 kts 249°
2026-05-05 03:43 34.15491 -117.19048 16498 ft 352 kts 250°
2026-05-05 03:44 34.14712 -117.21869 16090 ft 347 kts 250°
2026-05-05 03:44 34.13955 -117.24613 15702 ft 342 kts 250°
2026-05-05 03:44 34.13208 -117.27321 15327 ft 337 kts 250°
2026-05-05 03:44 34.12472 -117.29989 14962 ft 333 kts 250°
2026-05-05 03:45 34.11746 -117.32620 14603 ft 329 kts 250°
2026-05-05 03:45 34.11026 -117.35226 14239 ft 326 kts 250°
2026-05-05 03:45 34.10319 -117.37812 13902 ft 323 kts 251°
2026-05-05 03:45 34.09674 -117.40360 13566 ft 321 kts 252°
2026-05-05 03:46 34.09042 -117.42928 13221 ft 318 kts 252°
2026-05-05 03:46 34.08413 -117.45470 12910 ft 315 kts 252°
2026-05-05 03:46 34.07784 -117.47987 12623 ft 311 kts 252°
2026-05-05 03:46 34.07162 -117.50466 12317 ft 307 kts 252°
2026-05-05 03:47 34.06542 -117.52903 12025 ft 302 kts 252°
2026-05-05 03:47 34.05927 -117.55307 11736 ft 299 kts 252°
2026-05-05 03:47 34.05315 -117.57699 11453 ft 298 kts 252°
2026-05-05 03:47 34.04703 -117.60088 11165 ft 298 kts 252°
2026-05-05 03:48 34.04093 -117.62475 10878 ft 296 kts 252°
2026-05-05 03:48 34.03490 -117.64828 10591 ft 292 kts 252°
2026-05-05 03:48 34.02894 -117.67151 10318 ft 288 kts 252°
2026-05-05 03:48 34.02306 -117.69446 10051 ft 285 kts 253°
2026-05-05 03:49 34.01919 -117.71753 9953 ft 275 kts 262°
2026-05-05 03:49 34.01725 -117.74000 9940 ft 263 kts 263°
2026-05-05 03:49 34.01540 -117.76213 9294 ft 273 kts 263°
2026-05-05 03:49 34.01345 -117.78502 8830 ft 276 kts 263°
2026-05-05 03:50 34.01133 -117.80802 8472 ft 275 kts 263°
2026-05-05 03:50 34.00914 -117.83090 8126 ft 275 kts 263°
2026-05-05 03:50 34.00693 -117.85369 7813 ft 273 kts 262°
2026-05-05 03:50 34.00472 -117.87631 7509 ft 271 kts 263°
2026-05-05 03:51 34.00252 -117.89879 7211 ft 269 kts 263°
2026-05-05 03:51 34.00033 -117.92112 6897 ft 267 kts 263°
2026-05-05 03:51 33.99815 -117.94329 6606 ft 266 kts 263°
2026-05-05 03:51 33.99599 -117.96534 6308 ft 264 kts 263°
2026-05-05 03:52 33.99384 -117.98725 6006 ft 263 kts 263°
2026-05-05 03:52 33.99169 -118.00911 5667 ft 264 kts 263°
2026-05-05 03:52 33.98949 -118.03110 5321 ft 265 kts 263°
2026-05-05 03:52 33.98734 -118.05317 4985 ft 265 kts 264°
2026-05-05 03:53 33.98563 -118.07498 4973 ft 250 kts 264°
2026-05-05 03:53 33.98381 -118.09512 4903 ft 235 kts 263°
2026-05-05 03:53 33.98190 -118.11400 4803 ft 222 kts 262°
2026-05-05 03:53 33.98001 -118.13211 4548 ft 215 kts 262°
2026-05-05 03:54 33.97817 -118.14969 4260 ft 209 kts 263°
2026-05-05 03:54 33.97638 -118.16680 3998 ft 202 kts 263°
2026-05-05 03:54 33.97464 -118.18342 3724 ft 197 kts 263°
2026-05-05 03:54 33.97299 -118.19928 3473 ft 184 kts 262°
2026-05-05 03:55 33.97145 -118.21408 3224 ft 172 kts 262°
2026-05-05 03:55 33.97002 -118.22789 2998 ft 160 kts 262°
2026-05-05 03:55 33.96869 -118.24071 2785 ft 149 kts 262°
2026-05-05 03:55 33.96746 -118.25256 2623 ft 139 kts 263°
2026-05-05 03:56 33.96630 -118.26375 2444 ft 133 kts 263°
2026-05-05 03:56 33.96515 -118.27486 2252 ft 133 kts 263°
2026-05-05 03:56 33.96403 -118.28572 2076 ft 130 kts 263°
2026-05-05 03:56 33.96291 -118.29652 1911 ft 131 kts 262°
2026-05-05 03:57 33.96180 -118.30735 1728 ft 130 kts 262°
2026-05-05 03:57 33.96068 -118.31815 1555 ft 129 kts 262°
2026-05-05 03:57 33.95958 -118.32889 1364 ft 131 kts 262°
2026-05-05 03:57 33.95846 -118.33976 1211 ft 132 kts 262°
2026-05-05 03:58 33.95734 -118.35062 1012 ft 130 kts 263°
2026-05-05 03:58 33.95623 -118.36143 837 ft 132 kts 261°
2026-05-05 03:58 33.95510 -118.37241 641 ft 132 kts 261°
2026-05-05 03:58 33.95394 -118.38343 496 ft 128 kts 262°
2026-05-05 03:59 33.95289 -118.39390 341 ft 125 kts 260°
2026-05-05 03:59 33.95191 -118.40411 154 ft 127 kts 259°
2026-05-05 03:59 33.95085 -118.41369 125 ft 84 kts 263°
2026-05-05 03:59 33.95044 -118.41768 125 ft 36 kts 265°
2026-05-05 04:00 33.95016 -118.42076 121 ft 41 kts 263°
2026-05-05 04:00 33.94972 -118.42446 121 ft 45 kts 253°
2026-05-05 04:00 33.94830 -118.42704 122 ft 34 kts 221°
2026-05-05 04:00 33.94660 -118.42770 123 ft 18 kts 154°
2026-05-05 04:01 33.94643 -118.42628 125 ft 19 kts 83°
2026-05-05 04:01 33.94656 -118.42501 125 ft 27 kts 82°
2026-05-05 04:01 33.94685 -118.42229 123 ft 35 kts 83°
2026-05-05 04:01 33.94713 -118.41950 125 ft 27 kts 83°
2026-05-05 04:02 33.94653 -118.41790 123 ft 24 kts 114°
2026-05-05 04:02 33.94668 -118.41547 125 ft 32 kts 84°
2026-05-05 04:02 33.94634 -118.41376 121 ft 16 kts 166°
2026-05-05 04:02 33.94511 -118.41356 122 ft 22 kts 174°
2026-05-05 04:03 33.94306 -118.41328 123 ft 36 kts 173°
2026-05-05 04:03 33.94161 -118.41339 123 ft 17 kts 236°
2026-05-05 04:03 33.94147 -118.41413 124 ft 0 kts 262°
2026-05-05 04:03 33.94146 -118.41415 124 ft 0 kts 262°